ETH332 HAAB-HUEN

Flight info

Callsign ETH332
Flight time 1h 37m
Altitude 38000
Route ETGOM2A ETGOM UL432 IMVIP IMVIP1A
Aircraft B38M/M-SDE1FGHILORVWXY/HB1

Departure

Time 2026-04-26 10:02
Airport Addis Ababa Bole International Airport (HAAB)

Arrival

Time 2026-04-26 11:40
Airport Entebbe International Airport (HUEN)
Time Latitude Longitude Altitude Speed Heading
2026-04-26 09:34 8.98163 38.79426 7623 ft 0 kts 343°
2026-04-26 09:41 8.98163 38.79427 7623 ft 0 kts 343°
2026-04-26 09:45 8.98162 38.79427 7623 ft 0 kts 343°
2026-04-26 09:49 8.98138 38.79435 7623 ft 4 kts 338°
2026-04-26 09:49 8.98114 38.79446 7623 ft 4 kts 332°
2026-04-26 09:49 8.98091 38.79460 7623 ft 4 kts 320°
2026-04-26 09:50 8.98074 38.79480 7623 ft 4 kts 292°
2026-04-26 09:50 8.98071 38.79496 7623 ft 0 kts 253°
2026-04-26 09:52 8.98072 38.79496 7623 ft 0 kts 253°
2026-04-26 09:53 8.98071 38.79496 7623 ft 0 kts 253°
2026-04-26 09:53 8.98072 38.79496 7623 ft 0 kts 253°
2026-04-26 09:53 8.98071 38.79496 7623 ft 0 kts 253°
2026-04-26 09:53 8.98072 38.79496 7623 ft 0 kts 253°
2026-04-26 09:54 8.98071 38.79495 7623 ft 1 kts 253°
2026-04-26 09:54 8.98067 38.79482 7623 ft 3 kts 253°
2026-04-26 09:54 8.98059 38.79453 7623 ft 5 kts 254°
2026-04-26 09:55 8.98047 38.79412 7623 ft 7 kts 253°
2026-04-26 09:55 8.98032 38.79359 7623 ft 9 kts 253°
2026-04-26 09:55 8.98013 38.79295 7623 ft 10 kts 253°
2026-04-26 09:55 8.97991 38.79220 7623 ft 12 kts 253°
2026-04-26 09:56 8.97966 38.79133 7623 ft 14 kts 253°
2026-04-26 09:56 8.97939 38.79039 7623 ft 15 kts 253°
2026-04-26 09:56 8.97910 38.78940 7623 ft 15 kts 253°
2026-04-26 09:56 8.97879 38.78837 7623 ft 15 kts 254°
2026-04-26 09:57 8.97846 38.78752 7623 ft 10 kts 210°
2026-04-26 09:57 8.97788 38.78718 7623 ft 10 kts 243°
2026-04-26 09:57 8.97768 38.78650 7624 ft 10 kts 253°
2026-04-26 09:57 8.97744 38.78571 7624 ft 13 kts 253°
2026-04-26 09:58 8.97756 38.78501 7624 ft 12 kts 329°
2026-04-26 09:58 8.97805 38.78452 7623 ft 10 kts 270°
2026-04-26 09:58 8.97787 38.78382 7623 ft 11 kts 252°
2026-04-26 09:58 8.97765 38.78308 7623 ft 11 kts 253°
2026-04-26 09:59 8.97744 38.78235 7623 ft 9 kts 248°
2026-04-26 09:59 8.97715 38.78208 7623 ft 9 kts 208°
2026-04-26 09:59 8.97633 38.78201 7623 ft 9 kts 166°
2026-04-26 09:59 8.97569 38.78218 7624 ft 10 kts 165°
2026-04-26 10:00 8.97504 38.78235 7624 ft 10 kts 165°
2026-04-26 10:00 8.97439 38.78253 7624 ft 9 kts 165°
2026-04-26 10:00 8.97411 38.78271 7624 ft 2 kts 104°
2026-04-26 10:00 8.97419 38.78319 7624 ft 22 kts 73°
2026-04-26 10:01 8.97509 38.78624 7624 ft 68 kts 73°
2026-04-26 10:01 8.97686 38.79227 7621 ft 108 kts 73°
2026-04-26 10:01 8.97927 38.80051 7624 ft 138 kts 73°
2026-04-26 10:01 8.98225 38.81068 7624 ft 163 kts 73°
2026-04-26 10:02 8.98551 38.82191 7842 ft 164 kts 75°
2026-04-26 10:02 8.98834 38.83308 8091 ft 169 kts 73°
2026-04-26 10:02 8.99153 38.84506 8210 ft 183 kts 73°
2026-04-26 10:02 8.99515 38.85763 8512 ft 190 kts 75°
2026-04-26 10:03 8.99898 38.87073 8801 ft 199 kts 75°
2026-04-26 10:03 9.00310 38.88482 8909 ft 219 kts 76°
2026-04-26 10:03 9.00750 38.90010 9108 ft 234 kts 74°
2026-04-26 10:03 9.00998 38.91670 9494 ft 245 kts 96°
2026-04-26 10:04 9.00325 38.93236 10246 ft 248 kts 130°
2026-04-26 10:04 8.98845 38.94129 11033 ft 256 kts 165°
2026-04-26 10:04 8.97040 38.94053 11642 ft 270 kts 197°
2026-04-26 10:04 8.95423 38.93088 12425 ft 275 kts 223°
2026-04-26 10:05 8.94344 38.91531 13226 ft 275 kts 242°
2026-04-26 10:05 8.93367 38.89851 14038 ft 280 kts 238°
2026-04-26 10:05 8.92326 38.88168 14775 ft 283 kts 237°
2026-04-26 10:05 8.91266 38.86466 15481 ft 289 kts 236°
2026-04-26 10:06 8.90016 38.84846 16011 ft 299 kts 217°
2026-04-26 10:06 8.88180 38.83793 16381 ft 311 kts 196°
2026-04-26 10:06 8.86065 38.83076 16675 ft 331 kts 197°
2026-04-26 10:06 8.83836 38.82269 16991 ft 348 kts 197°
2026-04-26 10:07 8.81523 38.81452 17505 ft 357 kts 195°
2026-04-26 10:07 8.79160 38.80633 18183 ft 360 kts 195°
2026-04-26 10:07 8.76777 38.79816 18802 ft 363 kts 195°
2026-04-26 10:07 8.74376 38.79000 19368 ft 366 kts 195°
2026-04-26 10:08 8.72774 38.78455 19749 ft 367 kts 194°
2026-04-26 10:08 8.70336 38.77629 20265 ft 371 kts 195°
2026-04-26 10:08 8.67874 38.76794 20804 ft 374 kts 195°
2026-04-26 10:08 8.65398 38.75950 21326 ft 377 kts 196°
2026-04-26 10:09 8.62898 38.75099 21854 ft 380 kts 196°
2026-04-26 10:09 8.60377 38.74245 22380 ft 384 kts 196°
2026-04-26 10:09 8.57840 38.73387 22900 ft 387 kts 195°
2026-04-26 10:09 8.55274 38.72522 23426 ft 390 kts 195°
2026-04-26 10:10 8.52684 38.71647 23890 ft 393 kts 196°
2026-04-26 10:10 8.50080 38.70766 24322 ft 396 kts 196°
2026-04-26 10:10 8.47489 38.69891 24732 ft 399 kts 197°
2026-04-26 10:10 8.44842 38.68998 25133 ft 403 kts 197°
2026-04-26 10:11 8.42169 38.68094 25564 ft 406 kts 197°
2026-04-26 10:11 8.39483 38.67188 25999 ft 409 kts 196°
2026-04-26 10:11 8.36769 38.66272 26370 ft 413 kts 196°
2026-04-26 10:11 8.34036 38.65349 26766 ft 417 kts 197°
2026-04-26 10:12 8.31278 38.64418 27192 ft 419 kts 197°
2026-04-26 10:12 8.28507 38.63483 27605 ft 421 kts 197°
2026-04-26 10:12 8.25722 38.62544 27964 ft 425 kts 197°
2026-04-26 10:12 8.22890 38.61588 28332 ft 428 kts 197°
2026-04-26 10:13 8.20059 38.60633 28780 ft 430 kts 197°
2026-04-26 10:13 8.17212 38.59673 29105 ft 434 kts 198°
2026-04-26 10:13 8.14337 38.58704 29416 ft 438 kts 197°
2026-04-26 10:13 8.11478 38.57740 29816 ft 439 kts 197°
2026-04-26 10:14 8.08542 38.56751 30206 ft 440 kts 198°
2026-04-26 10:14 8.05657 38.55778 30431 ft 445 kts 198°
2026-04-26 10:14 8.02711 38.54786 30695 ft 448 kts 198°
2026-04-26 10:14 7.99754 38.53789 31047 ft 449 kts 198°
2026-04-26 10:15 7.96792 38.52791 31360 ft 451 kts 198°
2026-04-26 10:15 7.93795 38.51783 31562 ft 455 kts 198°
2026-04-26 10:15 7.90782 38.50767 31878 ft 457 kts 198°
2026-04-26 10:15 7.87769 38.49753 32227 ft 457 kts 198°
2026-04-26 10:16 7.84737 38.48732 32454 ft 461 kts 198°
2026-04-26 10:16 7.81679 38.47704 32665 ft 465 kts 198°
2026-04-26 10:16 7.78613 38.46671 33058 ft 464 kts 198°
2026-04-26 10:16 7.75545 38.45639 33320 ft 467 kts 198°
2026-04-26 10:17 7.72444 38.44596 33485 ft 471 kts 198°
2026-04-26 10:17 7.69343 38.43553 33897 ft 470 kts 198°
2026-04-26 10:17 7.66242 38.42510 34165 ft 471 kts 198°
2026-04-26 10:17 7.63120 38.41461 34375 ft 473 kts 198°
2026-04-26 10:18 7.59994 38.40409 34622 ft 474 kts 198°
2026-04-26 10:18 7.56861 38.39356 34861 ft 476 kts 198°
2026-04-26 10:18 7.53708 38.38296 35109 ft 477 kts 198°
2026-04-26 10:18 7.50596 38.37152 35405 ft 477 kts 205°
2026-04-26 10:19 7.47806 38.35387 35769 ft 474 kts 221°
2026-04-26 10:19 7.45533 38.33002 36063 ft 472 kts 231°
2026-04-26 10:19 7.43400 38.30473 36308 ft 473 kts 230°
2026-04-26 10:19 7.41286 38.27932 36603 ft 473 kts 231°
2026-04-26 10:20 7.39195 38.25385 36900 ft 472 kts 231°
2026-04-26 10:20 7.37138 38.22859 37198 ft 471 kts 231°
2026-04-26 10:20 7.35068 38.20309 37491 ft 470 kts 231°
2026-04-26 10:20 7.32997 38.17753 37785 ft 469 kts 231°
2026-04-26 10:21 7.30936 38.15210 38013 ft 469 kts 231°
2026-04-26 10:21 7.28875 38.12667 38004 ft 468 kts 231°
2026-04-26 10:21 7.24784 38.07622 38000 ft 465 kts 231°
2026-04-26 10:22 7.20686 38.02570 37996 ft 465 kts 231°
2026-04-26 10:22 7.16590 37.97521 37996 ft 465 kts 231°
2026-04-26 10:23 7.12496 37.92476 37987 ft 465 kts 231°
2026-04-26 10:23 7.08400 37.87430 37992 ft 465 kts 231°
2026-04-26 10:24 7.04306 37.82389 37988 ft 465 kts 231°
2026-04-26 10:24 7.00205 37.77341 37978 ft 465 kts 231°
2026-04-26 10:25 6.96139 37.72336 37974 ft 465 kts 231°
2026-04-26 10:25 6.92049 37.67305 37971 ft 465 kts 231°
2026-04-26 10:26 6.87901 37.62301 37958 ft 466 kts 224°
2026-04-26 10:26 6.85344 37.60325 37951 ft 462 kts 209°
2026-04-26 10:26 6.82529 37.58752 37969 ft 465 kts 208°
2026-04-26 10:27 6.76851 37.55633 37975 ft 465 kts 207°
2026-04-26 10:27 6.71140 37.52566 37977 ft 465 kts 207°
2026-04-26 10:28 6.65430 37.49510 37968 ft 465 kts 207°
2026-04-26 10:28 6.59711 37.46450 37985 ft 466 kts 207°
2026-04-26 10:29 6.53976 37.43383 37977 ft 467 kts 207°
2026-04-26 10:29 6.48243 37.40317 37972 ft 466 kts 207°
2026-04-26 10:30 6.42505 37.37250 37984 ft 467 kts 207°
2026-04-26 10:30 6.36774 37.34188 38002 ft 467 kts 207°
2026-04-26 10:31 6.31030 37.31119 37984 ft 468 kts 207°
2026-04-26 10:31 6.25263 37.28039 37995 ft 469 kts 207°
2026-04-26 10:32 6.19503 37.24963 38000 ft 469 kts 207°
2026-04-26 10:32 6.13751 37.21893 37998 ft 467 kts 207°
2026-04-26 10:33 6.08023 37.18836 37992 ft 465 kts 207°
2026-04-26 10:33 6.02302 37.15783 37987 ft 466 kts 207°
2026-04-26 10:34 5.96563 37.12721 37987 ft 467 kts 207°
2026-04-26 10:34 5.90821 37.09659 37991 ft 467 kts 207°
2026-04-26 10:35 5.85124 37.06622 37994 ft 467 kts 207°
2026-04-26 10:35 5.79385 37.03562 37978 ft 467 kts 207°
2026-04-26 10:36 5.73644 37.00503 37981 ft 467 kts 207°
2026-04-26 10:36 5.67910 36.97447 37962 ft 467 kts 207°
2026-04-26 10:37 5.62176 36.94393 37964 ft 466 kts 207°
2026-04-26 10:37 5.56445 36.91340 37952 ft 466 kts 207°
2026-04-26 10:38 5.50703 36.88283 37950 ft 466 kts 207°
2026-04-26 10:38 5.44965 36.85228 37941 ft 467 kts 207°
2026-04-26 10:39 5.39226 36.82173 37943 ft 467 kts 207°
2026-04-26 10:39 5.33486 36.79119 37942 ft 467 kts 207°
2026-04-26 10:40 5.27748 36.76066 37939 ft 467 kts 207°
2026-04-26 10:40 5.22000 36.73009 37937 ft 467 kts 207°
2026-04-26 10:41 5.16258 36.69956 37937 ft 467 kts 207°
2026-04-26 10:41 5.10511 36.66899 37938 ft 467 kts 207°
2026-04-26 10:42 5.04769 36.63847 37928 ft 467 kts 207°
2026-04-26 10:42 4.99026 36.60795 37925 ft 467 kts 207°
2026-04-26 10:43 4.93268 36.57735 37930 ft 467 kts 207°
2026-04-26 10:43 4.87559 36.54702 37917 ft 467 kts 207°
2026-04-26 10:44 4.81810 36.51649 37916 ft 467 kts 207°
2026-04-26 10:44 4.76051 36.48590 37910 ft 468 kts 207°
2026-04-26 10:45 4.70293 36.45533 37911 ft 468 kts 207°
2026-04-26 10:45 4.64546 36.42482 37905 ft 468 kts 207°
2026-04-26 10:46 4.58791 36.39428 37917 ft 468 kts 207°
2026-04-26 10:46 4.53038 36.36375 37875 ft 467 kts 207°
2026-04-26 10:47 4.47297 36.33329 37912 ft 468 kts 207°
2026-04-26 10:47 4.41546 36.30279 37895 ft 467 kts 207°
2026-04-26 10:48 4.35800 36.27231 37897 ft 467 kts 207°
2026-04-26 10:48 4.30055 36.24184 37898 ft 467 kts 207°
2026-04-26 10:49 4.24318 36.21143 37892 ft 466 kts 206°
2026-04-26 10:49 4.18589 36.18106 37897 ft 466 kts 206°
2026-04-26 10:50 4.13822 36.15579 37893 ft 466 kts 207°
2026-04-26 10:50 4.07155 36.12046 37894 ft 466 kts 206°
2026-04-26 10:51 3.98548 36.07494 37891 ft 465 kts 206°
2026-04-26 10:52 3.92832 36.04482 37893 ft 464 kts 206°
2026-04-26 10:52 3.88083 36.01980 37893 ft 464 kts 206°
2026-04-26 10:53 3.82368 35.98969 37895 ft 464 kts 206°
2026-04-26 10:53 3.76649 35.95956 37891 ft 464 kts 206°
2026-04-26 10:54 3.68071 35.91439 37888 ft 465 kts 206°
2026-04-26 10:54 3.62337 35.88419 37889 ft 465 kts 206°
2026-04-26 10:55 3.56610 35.85404 37888 ft 465 kts 206°
2026-04-26 10:55 3.50880 35.82387 37888 ft 465 kts 206°
2026-04-26 10:56 3.45158 35.79375 37885 ft 465 kts 206°
2026-04-26 10:56 3.39428 35.76359 37884 ft 465 kts 206°
2026-04-26 10:57 3.33704 35.73347 37884 ft 464 kts 206°
2026-04-26 10:57 3.27984 35.70338 37880 ft 464 kts 206°
2026-04-26 10:58 3.22264 35.67329 37883 ft 464 kts 206°
2026-04-26 10:58 3.16543 35.64320 37882 ft 464 kts 206°
2026-04-26 10:59 3.10914 35.61171 37859 ft 465 kts 217°
2026-04-26 10:59 3.06176 35.56765 37857 ft 465 kts 222°
2026-04-26 11:00 3.01485 35.52303 37884 ft 465 kts 223°
2026-04-26 11:00 2.96827 35.47809 37880 ft 467 kts 223°
2026-04-26 11:01 2.92136 35.43275 37885 ft 468 kts 223°
2026-04-26 11:01 2.87453 35.38749 37884 ft 468 kts 223°
2026-04-26 11:02 2.82803 35.34254 37900 ft 468 kts 223°
2026-04-26 11:02 2.78121 35.29730 37893 ft 468 kts 223°
2026-04-26 11:03 2.73409 35.25178 37888 ft 468 kts 223°
2026-04-26 11:03 2.68723 35.20650 37906 ft 469 kts 223°
2026-04-26 11:04 2.64031 35.16118 37896 ft 469 kts 223°
2026-04-26 11:04 2.59328 35.11575 37910 ft 469 kts 223°
2026-04-26 11:05 2.54663 35.07069 37918 ft 469 kts 223°
2026-04-26 11:05 2.49969 35.02537 37946 ft 469 kts 223°
2026-04-26 11:06 2.45281 34.97990 37940 ft 470 kts 226°
2026-04-26 11:06 2.40980 34.93071 37966 ft 470 kts 229°
2026-04-26 11:07 2.36720 34.88110 37975 ft 470 kts 229°
2026-04-26 11:07 2.32466 34.83143 37965 ft 470 kts 229°
2026-04-26 11:08 2.28215 34.78181 37963 ft 470 kts 229°
2026-04-26 11:08 2.23968 34.73223 37979 ft 470 kts 229°
2026-04-26 11:09 2.19703 34.68244 37963 ft 472 kts 229°
2026-04-26 11:09 2.15435 34.63263 37973 ft 472 kts 229°
2026-04-26 11:10 2.11168 34.58282 37966 ft 472 kts 229°
2026-04-26 11:10 2.06898 34.53299 37968 ft 472 kts 229°
2026-04-26 11:11 2.02625 34.48314 37966 ft 472 kts 229°
2026-04-26 11:11 1.98359 34.43336 37965 ft 471 kts 229°
2026-04-26 11:12 1.94093 34.38360 37958 ft 471 kts 229°
2026-04-26 11:12 1.89830 34.33386 37963 ft 471 kts 229°
2026-04-26 11:13 1.85553 34.28397 37953 ft 473 kts 229°
2026-04-26 11:13 1.81122 34.23542 37969 ft 472 kts 224°
2026-04-26 11:14 1.76492 34.18862 37939 ft 472 kts 225°
2026-04-26 11:14 1.71895 34.14161 37955 ft 473 kts 225°
2026-04-26 11:15 1.67302 34.09456 37952 ft 473 kts 225°
2026-04-26 11:15 1.62706 34.04748 37950 ft 473 kts 225°
2026-04-26 11:16 1.58114 34.00045 37952 ft 473 kts 225°
2026-04-26 11:16 1.53519 33.95339 37956 ft 473 kts 225°
2026-04-26 11:17 1.48919 33.90628 37952 ft 473 kts 225°
2026-04-26 11:17 1.44318 33.85917 37952 ft 473 kts 225°
2026-04-26 11:18 1.39746 33.81235 37953 ft 473 kts 225°
2026-04-26 11:18 1.35145 33.76525 37901 ft 474 kts 225°
2026-04-26 11:19 1.32857 33.74182 37398 ft 469 kts 225°
2026-04-26 11:19 1.30569 33.71840 36578 ft 473 kts 225°
2026-04-26 11:19 1.28262 33.69478 35912 ft 473 kts 225°
2026-04-26 11:19 1.25977 33.67138 35453 ft 469 kts 225°
2026-04-26 11:20 1.23702 33.64810 34905 ft 467 kts 225°
2026-04-26 11:20 1.22200 33.63272 34510 ft 467 kts 225°
2026-04-26 11:20 1.19166 33.60166 33747 ft 465 kts 225°
2026-04-26 11:20 1.16914 33.57861 33189 ft 463 kts 225°
2026-04-26 11:21 1.14674 33.55568 32678 ft 459 kts 225°
2026-04-26 11:21 1.12445 33.53285 32172 ft 456 kts 225°
2026-04-26 11:21 1.10236 33.51025 31664 ft 454 kts 225°
2026-04-26 11:21 1.08036 33.48773 31149 ft 451 kts 225°
2026-04-26 11:22 1.05849 33.46534 30652 ft 449 kts 225°
2026-04-26 11:22 1.03668 33.44302 30148 ft 447 kts 225°
2026-04-26 11:22 1.01504 33.42087 29578 ft 445 kts 225°
2026-04-26 11:22 0.99345 33.39877 29036 ft 443 kts 225°
2026-04-26 11:23 0.97202 33.37684 28548 ft 439 kts 225°
2026-04-26 11:23 0.95078 33.35510 28093 ft 435 kts 225°
2026-04-26 11:23 0.92973 33.33356 27621 ft 432 kts 225°
2026-04-26 11:23 0.90877 33.31212 27155 ft 429 kts 225°
2026-04-26 11:24 0.88804 33.29090 26695 ft 426 kts 225°
2026-04-26 11:24 0.86774 33.27012 26236 ft 423 kts 225°
2026-04-26 11:24 0.84722 33.24912 25817 ft 420 kts 225°
2026-04-26 11:24 0.82691 33.22821 25371 ft 418 kts 227°
2026-04-26 11:25 0.81077 33.20424 24864 ft 418 kts 246°
2026-04-26 11:25 0.80206 33.17665 24454 ft 415 kts 255°
2026-04-26 11:25 0.79395 33.14907 24048 ft 412 kts 253°
2026-04-26 11:25 0.78584 33.12172 23625 ft 411 kts 253°
2026-04-26 11:26 0.77782 33.09432 23103 ft 410 kts 253°
2026-04-26 11:26 0.76988 33.06710 22642 ft 407 kts 253°
2026-04-26 11:26 0.76202 33.04006 22220 ft 404 kts 253°
2026-04-26 11:26 0.75420 33.01321 21794 ft 401 kts 252°
2026-04-26 11:27 0.74253 32.98817 21290 ft 398 kts 234°
2026-04-26 11:27 0.72659 32.96574 20913 ft 394 kts 234°
2026-04-26 11:27 0.71119 32.94324 20526 ft 391 kts 234°
2026-04-26 11:27 0.69582 32.92090 20125 ft 389 kts 234°
2026-04-26 11:28 0.68050 32.89865 19656 ft 389 kts 234°
2026-04-26 11:28 0.66516 32.87641 19211 ft 388 kts 234°
2026-04-26 11:28 0.64991 32.85429 18802 ft 386 kts 234°
2026-04-26 11:28 0.63466 32.83218 18405 ft 385 kts 234°
2026-04-26 11:29 0.61951 32.81020 17957 ft 383 kts 234°
2026-04-26 11:29 0.60440 32.78829 17529 ft 381 kts 234°
2026-04-26 11:29 0.58944 32.76661 17125 ft 378 kts 234°
2026-04-26 11:29 0.57460 32.74507 16728 ft 375 kts 234°
2026-04-26 11:30 0.55985 32.72370 16340 ft 372 kts 234°
2026-04-26 11:30 0.55019 32.70969 16085 ft 370 kts 234°
2026-04-26 11:30 0.53067 32.68138 15456 ft 370 kts 234°
2026-04-26 11:30 0.51612 32.66027 15023 ft 368 kts 234°
2026-04-26 11:31 0.50161 32.63925 14591 ft 368 kts 234°
2026-04-26 11:31 0.48708 32.61817 14135 ft 368 kts 235°
2026-04-26 11:31 0.47253 32.59707 13642 ft 368 kts 235°
2026-04-26 11:31 0.45795 32.57593 13103 ft 369 kts 235°
2026-04-26 11:32 0.44831 32.56197 12782 ft 368 kts 235°
2026-04-26 11:32 0.42926 32.53433 12143 ft 356 kts 235°
2026-04-26 11:32 0.41989 32.52074 11845 ft 347 kts 235°
2026-04-26 11:32 0.40642 32.50121 11403 ft 335 kts 235°
2026-04-26 11:33 0.39341 32.48235 10979 ft 325 kts 234°
2026-04-26 11:33 0.38073 32.46395 10516 ft 317 kts 234°
2026-04-26 11:33 0.36834 32.44599 10056 ft 310 kts 234°
2026-04-26 11:33 0.35623 32.42842 9572 ft 304 kts 234°
2026-04-26 11:34 0.34266 32.41289 9154 ft 292 kts 216°
2026-04-26 11:34 0.32506 32.40404 8818 ft 278 kts 194°
2026-04-26 11:34 0.30653 32.40186 8469 ft 267 kts 178°
2026-04-26 11:34 0.28835 32.40357 8144 ft 258 kts 172°
2026-04-26 11:35 0.27095 32.40609 7870 ft 245 kts 171°
2026-04-26 11:35 0.25461 32.40842 7572 ft 231 kts 172°
2026-04-26 11:35 0.23918 32.41059 7297 ft 218 kts 172°
2026-04-26 11:35 0.22450 32.41265 7031 ft 207 kts 172°
2026-04-26 11:36 0.21048 32.41460 6787 ft 199 kts 172°
2026-04-26 11:36 0.19687 32.41650 6532 ft 195 kts 172°
2026-04-26 11:36 0.18358 32.41836 6282 ft 191 kts 172°
2026-04-26 11:36 0.17057 32.42017 6013 ft 186 kts 171°
2026-04-26 11:37 0.15795 32.42195 5813 ft 181 kts 172°
2026-04-26 11:37 0.14555 32.42366 5549 ft 179 kts 172°
2026-04-26 11:37 0.13324 32.42540 5347 ft 178 kts 171°
2026-04-26 11:37 0.12097 32.42711 5119 ft 178 kts 172°
2026-04-26 11:38 0.10895 32.42879 4924 ft 166 kts 171°
2026-04-26 11:38 0.09802 32.43031 4744 ft 156 kts 172°
2026-04-26 11:38 0.08730 32.43185 4515 ft 155 kts 173°
2026-04-26 11:38 0.07671 32.43335 4248 ft 151 kts 174°
2026-04-26 11:39 0.06644 32.43470 4042 ft 146 kts 175°
2026-04-26 11:39 0.05644 32.43606 3839 ft 147 kts 174°
2026-04-26 11:39 0.04688 32.43733 3795 ft 118 kts 173°
2026-04-26 11:39 0.04118 32.43818 3787 ft 55 kts 172°
2026-04-26 11:40 0.03738 32.43871 3786 ft 50 kts 173°
2026-04-26 11:40 0.03424 32.43915 3789 ft 40 kts 172°
2026-04-26 11:40 0.03192 32.43948 3795 ft 33 kts 171°
2026-04-26 11:40 0.02994 32.43980 3792 ft 23 kts 158°
2026-04-26 11:41 0.02869 32.44073 3787 ft 22 kts 141°
2026-04-26 11:42 0.03538 32.44075 3783 ft 28 kts 353°
2026-04-26 11:43 0.03734 32.44048 3791 ft 29 kts 353°
2026-04-26 11:43 0.03927 32.44020 3786 ft 27 kts 352°
2026-04-26 11:43 0.04101 32.43996 3782 ft 21 kts 352°
2026-04-26 11:43 0.04184 32.43988 3782 ft 9 kts 16°
2026-04-26 11:44 0.04208 32.44032 3782 ft 7 kts 83°
2026-04-26 11:44 0.04214 32.44079 3787 ft 7 kts 82°
2026-04-26 11:44 0.04237 32.44131 3784 ft 9 kts 30°
2026-04-26 11:44 0.04296 32.44131 3784 ft 10 kts 351°
2026-04-26 11:45 0.04377 32.44120 3790 ft 13 kts 352°
2026-04-26 11:45 0.04471 32.44107 3782 ft 13 kts 352°
2026-04-26 11:45 0.04530 32.44105 3782 ft 5 kts 28°
2026-04-26 11:45 0.04542 32.44128 3782 ft 3 kts 78°
2026-04-26 11:46 0.04545 32.44151 3782 ft 4 kts 82°
2026-04-26 11:46 0.04549 32.44180 3784 ft 2 kts 82°
2026-04-26 11:46 0.04550 32.44183 3785 ft 0 kts 82°
2026-04-26 11:46 0.04550 32.44184 3785 ft 0 kts 82°
2026-04-26 11:48 0.04550 32.44183 3785 ft 0 kts 82°